| time (UTC) | temp F | wind direction | speed MPH | gust MPH | rain 1hr in | rain 24hr in | rain mn in | humidity % | barometer mb |
| 20260505023054 | 58 | 135 | 4.0 | 14.0 | 0.00 | 0.00 | 0.00 | 79 | 1010.6 |
| 20260505021551 | 58 | 148 | 4.0 | 14.0 | 0.00 | 0.00 | 0.00 | 78 | 1010.6 |
| 20260505020051 | 59 | 181 | 2.0 | 9.0 | 0.00 | 0.00 | 0.00 | 76 | 1010.6 |
| 20260505014605 | 60 | 167 | 5.0 | 14.0 | 0.00 | 0.00 | 0.00 | 74 | 1010.4 |
| 20260505013055 | 60 | 84 | 5.0 | 14.0 | 0.00 | 0.00 | 0.00 | 74 | 1010.4 |
| 20260505011600 | 59 | 45 | 4.0 | 12.0 | 0.00 | 0.00 | 0.00 | 74 | 1010.4 |
| 20260505010058 | 60 | 148 | 3.0 | 13.0 | 0.00 | 0.00 | 0.00 | 74 | 1010.1 |
| 20260505004551 | 59 | 147 | 6.0 | 15.0 | 0.00 | 0.00 | 0.00 | 74 | 1010.0 |
| 20260505003053 | 59 | 112 | 3.0 | 11.0 | 0.00 | 0.00 | 0.00 | 75 | 1010.1 |
| 20260505001603 | 59 | 117 | 6.0 | 15.0 | 0.00 | 0.00 | 0.00 | 75 | 1009.9 |
| 20260505000122 | 59 | 184 | 6.0 | 15.0 | 0.00 | 0.00 | 0.00 | 75 | 1009.8 |
| 20260504234607 | 59 | 251 | 6.0 | 14.0 | 0.00 | 0.00 | 0.00 | 75 | 1009.9 |
| 20260504233103 | 59 | 130 | 6.0 | 14.0 | 0.00 | 0.00 | 0.00 | 75 | 1009.8 |
| 20260504231557 | 59 | 153 | 5.0 | 14.0 | 0.00 | 0.00 | 0.00 | 76 | 1009.7 |
| 20260504230057 | 59 | 149 | 6.0 | 16.0 | 0.00 | 0.00 | 0.00 | 76 | 1009.7 |
| 20260504224606 | 59 | 144 | 7.0 | 16.0 | 0.00 | 0.00 | 0.00 | 75 | 1009.6 |
| 20260504223055 | 60 | 134 | 7.0 | 13.0 | 0.00 | 0.00 | 0.00 | 74 | 1009.8 |
| 20260504221552 | 61 | 174 | 8.0 | 17.0 | 0.00 | 0.00 | 0.00 | 73 | 1009.6 |
| 20260504220058 | 61 | 137 | 8.0 | 19.0 | 0.00 | 0.00 | 0.00 | 71 | 1009.6 |
| 20260504214550 | 62 | 112 | 6.0 | 18.0 | 0.00 | 0.00 | 0.00 | 71 | 1009.6 |
| 20260504213119 | 62 | 172 | 11.0 | 18.0 | 0.00 | 0.00 | 0.00 | 70 | 1009.6 |
| 20260504211555 | 62 | 103 | 7.0 | 20.0 | 0.00 | 0.00 | 0.00 | 71 | 1009.6 |
| 20260504210055 | 63 | 120 | 7.0 | 20.0 | 0.00 | 0.00 | 0.00 | 70 | 1009.6 |
| 20260504204554 | 63 | 109 | 7.0 | 19.0 | 0.00 | 0.00 | 0.00 | 68 | 1009.5 |
| 20260504203112 | 63 | 159 | 5.0 | 15.0 | 0.00 | 0.00 | 0.00 | 71 | 1009.5 |
| 20260504201555 | 62 | 119 | 8.0 | 18.0 | 0.00 | 0.00 | 0.00 | 71 | 1009.6 |
| 20260504200055 | 61 | 107 | 10.0 | 19.0 | 0.00 | 0.00 | 0.00 | 71 | 1009.8 |
| 20260504194600 | 61 | 147 | 6.0 | 19.0 | 0.00 | 0.00 | 0.00 | 75 | 1009.8 |
| 20260504193059 | 61 | 185 | 8.0 | 16.0 | 0.00 | 0.00 | 0.00 | 73 | 1009.8 |
| 20260504191549 | 62 | 152 | 9.0 | 17.0 | 0.00 | 0.00 | 0.00 | 70 | 1010.0 |
| 20260504190113 | 62 | 126 | 8.0 | 18.0 | 0.00 | 0.00 | 0.00 | 70 | 1010.2 |
| 20260504184605 | 63 | 136 | 10.0 | 17.0 | 0.00 | 0.00 | 0.00 | 68 | 1010.3 |
| 20260504183053 | 64 | 184 | 9.0 | 18.0 | 0.00 | 0.00 | 0.00 | 68 | 1010.6 |
| 20260504181549 | 64 | 165 | 5.0 | 17.0 | 0.00 | 0.00 | 0.00 | 70 | 1010.6 |
| 20260504180055 | 64 | 119 | 7.0 | 16.0 | 0.00 | 0.00 | 0.00 | 70 | 1010.9 |
| 20260504174601 | 64 | 135 | 5.0 | 15.0 | 0.00 | 0.00 | 0.00 | 70 | 1011.2 |
| 20260504173057 | 64 | 175 | 8.0 | 17.0 | 0.00 | 0.00 | 0.00 | 69 | 1011.2 |
| 20260504171552 | 65 | 175 | 7.0 | 16.0 | 0.00 | 0.00 | 0.00 | 67 | 1011.3 |
| 20260504140106 | 63 | 195 | 4.0 | 15.0 | 0.00 | 0.00 | 0.00 | 61 | 1012.5 |
| 20260504110116 | 49 | 145 | 3.0 | 7.0 | 0.00 | 0.00 | 0.00 | 76 | 1013.7 |
| 20260504090117 | 49 | 177 | 2.0 | 9.0 | 0.00 | 0.00 | 0.00 | 70 | 1013.5 |
| 20260504081555 | 49 | 140 | 2.0 | 6.0 | 0.00 | 0.00 | 0.00 | 69 | 1013.5 |
| 20260504044601 | 49 | 196 | 1.0 | 6.0 | 0.00 | 0.00 | 0.00 | 58 | 1013.0 |
| 20260504043054 | 49 | 158 | 1.0 | 5.0 | 0.00 | 0.00 | 0.00 | 58 | 1012.8 |
| 20260504041556 | 49 | 0 | 1.0 | 6.0 | 0.00 | 0.00 | 0.00 | 57 | 1012.6 |
| 20260504040103 | 49 | 149 | 1.0 | 4.0 | 0.00 | 0.00 | 0.00 | 57 | 1012.6 |
| 20260504034603 | 49 | 219 | 1.0 | 4.0 | 0.00 | 0.00 | 0.00 | 56 | 1012.4 |
| 20260504033114 | 49 | 180 | 0.0 | 4.0 | 0.00 | 0.00 | 0.00 | 55 | 1012.4 |
| 20260504031559 | 49 | 134 | 0.0 | 2.0 | 0.00 | 0.00 | 0.00 | 54 | 1012.3 |
| 20260504030054 | 49 | 0 | 0.0 | 5.0 | 0.00 | 0.00 | 0.00 | 55 | 1012.2 |
| 20260504024551 | 49 | 142 | 0.0 | 5.0 | 0.00 | 0.00 | 0.00 | 55 | 1012.4 |